Tracking 17631 objects as of 6-May-2016
HD Live streaming from Space Station
objects crossing your sky now

SL-16 DEB

Track SL-16 DEB now!
10-day predictions


NORAD ID: 28354
Int'l Code: 2004-021C
Perigee: 849.8 km
Apogee: 1,176.7 km
Inclination: 71.0 °
Period: 105.2 minutes
Semi major axis: 7384 km
RCS: 0.0814 m2 (small)
Launch date: June 10, 2004
Source: Commonwealth of Independent States (former USSR) (CIS)
Launch site: TYURATAM MISSILE AND SPACE COMPLEX (TTMTR)

Note: This is SATELLITE DEBRIS
Your satellite tracking list
Your tracking list is empty





NASA's NSSDC Master Catalog

Two Line Element Set (TLE):
1 28354U 04021C   16125.45438756 +.00000053 +00000-0 +93209-4 0  9991
2 28354 070.9549 147.2763 0221350 129.2663 232.8305 13.68191835593690
Source of the keplerian elements: AFSPC

N2YO: 522